sat.trackr.live / text

‹ back to catalog

STARLINK-35667

NORAD 66400 · 2025-257W

PAYLOAD ACTIVE UNKNOWN

§ Identity

Operator
Country
US
Launch date
2025-11-09
Launch site
AFETR
Launch vehicle
Mass (kg)
RCS (m²)

Purposes: comms

External: N2YO · Heavens-Above · Gunter

§ Orbital elements

Epoch: 2026-09-20T14:05:39.924960Z

Period
93.85 min
Inclination
53.1602°
Eccentricity
0.0001791
Mean motion
15.34373016 rev/d
Perigee alt
461.6 km
Apogee alt
464.0 km
Semi-major
6,840.9 km
B*
6.4098e-4
RAAN
27.4550°
Arg perigee
27.7553°
Mean anomaly
332.3545°
Rev number
4,963

§ Raw data

STARLINK-356671 66400U 25257W   26263.58726765  .00021324  00000+0  64098-3 0  99932 66400  53.1602  27.4550 0001791  27.7553 332.3545 15.34373016 49635

JSON: /api/v1/satellites/66400 · /tle

For live sub-satellite position, see the globe view (requires WebGL).

§ Visibility from observer

Set your observer location to see the next 7 days of passes ≥ 10°. The values pass through the URL so the page stays shareable.

No JS? Fill the form by hand. The geolocation button needs JavaScript.